• In Belgien
  • Länderverzeichnis
  • Für 7 Tage
  • Wassertemperatur
  • Satellitenkarten
  • Wetterkarte
  • Widgets
  • user-avatar
    Anmelden

    Stündliche Wetter Tirana

    Heute, 18 Oktober, Mittwoch

    Zeit Temperatur Niederschläge Wind Luftdruck Luftfeuchtigkeit
    00:00 +21°C° 0 mm 1 m/S 758 mmHg 50%
    01:00 +21°C° 0 mm 1 m/S 758 mmHg 50%
    02:00 +21°C° 0 mm 1 m/S 758 mmHg 50%
    03:00 +20°C° 0 mm 1 m/S 758 mmHg 50%
    04:00 +20°C° 0 mm 1 m/S 758 mmHg 50%
    05:00 +20°C° 0 mm 1 m/S 758 mmHg 49%
    06:00 +21°C° 0 mm 1 m/S 758 mmHg 49%
    07:00 +22°C° 0 mm 1 m/S 757 mmHg 48%
    08:00 +24°C° 0 mm 1 m/S 757 mmHg 42%
    09:00 +26°C° 0 mm 1 m/S 757 mmHg 36%
    10:00 +28°C° 0 mm 1 m/S 757 mmHg 30%
    11:00 +29°C° 0 mm 1 m/S 757 mmHg 29%
    12:00 +29°C° 0 mm 2 m/S 756 mmHg 28%
    13:00 +30°C° 0 mm 2 m/S 756 mmHg 28%
    14:00 +28°C° 0 mm 2 m/S 756 mmHg 33%
    15:00 +27°C° 0 mm 2 m/S 756 mmHg 38%
    16:00 +26°C° 0 mm 1 m/S 755 mmHg 44%
    17:00 +24°C° 0 mm 1 m/S 755 mmHg 49%
    18:00 +23°C° 0 mm 1 m/S 756 mmHg 54%
    19:00 +19°C° 0 mm 0 m/S 756 mmHg 59%
    20:00 +21°C° 0 mm 1 m/S 756 mmHg 58%
    21:00 +21°C° 0 mm 1 m/S 756 mmHg 58%
    22:00 +20°C° 0 mm 1 m/S 756 mmHg 57%
    23:00 +20°C° 0 mm 1 m/S 756 mmHg 56%

    Morgen, 19 Oktober, Donnerstag

    Zeit Temperatur Niederschläge Wind Luftdruck Luftfeuchtigkeit
    00:00 +20°C° 0 mm 1 m/S 756 mmHg 56%
    01:00 +20°C° 0 mm 1 m/S 756 mmHg 55%
    02:00 +19°C° 0 mm 1 m/S 756 mmHg 55%
    03:00 +19°C° 0 mm 1 m/S 756 mmHg 55%
    04:00 +19°C° 0 mm 1 m/S 755 mmHg 55%
    05:00 +19°C° 0 mm 1 m/S 755 mmHg 55%
    06:00 +18°C° 0 mm 2 m/S 755 mmHg 54%
    07:00 +19°C° 0 mm 2 m/S 756 mmHg 54%
    08:00 +21°C° 0 mm 2 m/S 756 mmHg 49%
    09:00 +24°C° 0 mm 2 m/S 756 mmHg 44%
    10:00 +26°C° 0 mm 2 m/S 756 mmHg 40%
    11:00 +26°C° 0 mm 2 m/S 756 mmHg 39%
    12:00 +27°C° 0 mm 2 m/S 755 mmHg 38%
    13:00 +27°C° 0 mm 3 m/S 755 mmHg 37%
    14:00 +26°C° 0 mm 3 m/S 755 mmHg 42%
    15:00 +25°C° 0 mm 2 m/S 755 mmHg 46%
    16:00 +25°C° 0 mm 2 m/S 755 mmHg 51%
    17:00 +23°C° 0 mm 2 m/S 755 mmHg 59%
    18:00 +20°C° 0 mm 2 m/S 755 mmHg 66%
    19:00 +19°C° 0 mm 1 m/S 756 mmHg 73%
    20:00 +18°C° 0 mm 2 m/S 756 mmHg 73%
    21:00 +18°C° 0 mm 2 m/S 756 mmHg 73%
    22:00 +18°C° 0 mm 2 m/S 756 mmHg 73%
    23:00 +17°C° 0 mm 2 m/S 756 mmHg 73%

    übermorgen, 20 Oktober, Freitag

    Zeit Temperatur Niederschläge Wind Luftdruck Luftfeuchtigkeit
    00:00 +17°C° 0 mm 2 m/S 756 mmHg 72%
    01:00 +17°C° 0 mm 2 m/S 756 mmHg 72%
    02:00 +17°C° 0 mm 2 m/S 756 mmHg 71%
    03:00 +16°C° 0 mm 2 m/S 755 mmHg 70%
    04:00 +16°C° 0 mm 2 m/S 755 mmHg 69%
    05:00 +17°C° 0 mm 2 m/S 755 mmHg 67%
    06:00 +17°C° 0 mm 2 m/S 756 mmHg 65%
    07:00 +17°C° 0 mm 2 m/S 756 mmHg 63%
    08:00 +20°C° 0 mm 2 m/S 756 mmHg 55%
    09:00 +23°C° 0 mm 2 m/S 756 mmHg 48%
    10:00 +25°C° 0 mm 1 m/S 756 mmHg 41%
    11:00 +25°C° 0 mm 2 m/S 756 mmHg 40%
    12:00 +26°C° 0 mm 2 m/S 756 mmHg 40%
    13:00 +26°C° 0 mm 2 m/S 755 mmHg 39%
    14:00 +25°C° 0 mm 2 m/S 755 mmHg 44%
    15:00 +24°C° 0 mm 2 m/S 755 mmHg 48%
    16:00 +24°C° 0 mm 2 m/S 755 mmHg 53%
    17:00 +21°C° 0 mm 2 m/S 755 mmHg 60%
    18:00 +20°C° 0 mm 1 m/S 756 mmHg 66%
    19:00 +19°C° 0 mm 1 m/S 756 mmHg 73%
    20:00 +19°C° 0 mm 1 m/S 756 mmHg 72%
    21:00 +18°C° 0 mm 1 m/S 757 mmHg 71%
    22:00 +18°C° 0 mm 1 m/S 757 mmHg 71%
    23:00 +18°C° 0 mm 1 m/S 757 mmHg 70%

    21 Oktober, Samstag

    Zeit Temperatur Niederschläge Wind Luftdruck Luftfeuchtigkeit
    00:00 +18°C° 0 mm 1 m/S 757 mmHg 69%
    01:00 +16°C° 0 mm 1 m/S 757 mmHg 68%
    02:00 +16°C° 0 mm 1 m/S 757 mmHg 68%
    03:00 +16°C° 0 mm 1 m/S 756 mmHg 67%
    04:00 +16°C° 0 mm 1 m/S 756 mmHg 66%
    05:00 +16°C° 0 mm 1 m/S 756 mmHg 64%
    06:00 +18°C° 0 mm 1 m/S 756 mmHg 63%
    07:00 +18°C° 0 mm 1 m/S 757 mmHg 61%
    08:00 +19°C° 0 mm 2 m/S 757 mmHg 54%
    09:00 +23°C° 0 mm 2 m/S 757 mmHg 47%
    10:00 +25°C° 0 mm 2 m/S 757 mmHg 40%
    11:00 +25°C° 0 mm 3 m/S 756 mmHg 39%
    12:00 +26°C° 0 mm 3 m/S 756 mmHg 39%
    13:00 +26°C° 0 mm 4 m/S 756 mmHg 38%
    14:00 +25°C° 0 mm 4 m/S 755 mmHg 42%
    15:00 +25°C° 0 mm 4 m/S 755 mmHg 46%
    16:00 +23°C° 0 mm 4 m/S 755 mmHg 50%
    17:00 +21°C° 0 mm 4 m/S 755 mmHg 57%
    18:00 +19°C° 0 mm 3 m/S 756 mmHg 64%
    19:00 +18°C° 0 mm 2 m/S 756 mmHg 71%
    20:00 +17°C° 0 mm 2 m/S 756 mmHg 69%
    21:00 +17°C° 0 mm 2 m/S 756 mmHg 68%
    22:00 +17°C° 0 mm 2 m/S 756 mmHg 66%
    23:00 +17°C° 0 mm 2 m/S 756 mmHg 64%

    22 Oktober, Sonntag

    Zeit Temperatur Niederschläge Wind Luftdruck Luftfeuchtigkeit
    00:00 +17°C° 0 mm 2 m/S 756 mmHg 63%
    01:00 +17°C° 0 mm 2 m/S 756 mmHg 61%
    02:00 +16°C° 0 mm 2 m/S 756 mmHg 61%
    03:00 +16°C° 0 mm 1 m/S 756 mmHg 60%
    04:00 +16°C° 0 mm 1 m/S 755 mmHg 60%
    05:00 +16°C° 0 mm 1 m/S 755 mmHg 58%
    06:00 +18°C° 0 mm 1 m/S 755 mmHg 57%
    07:00 +18°C° 0 mm 1 m/S 755 mmHg 55%
    08:00 +20°C° 0 mm 1 m/S 755 mmHg 50%
    09:00 +23°C° 0 mm 1 m/S 755 mmHg 44%
    10:00 +25°C° 0 mm 1 m/S 755 mmHg 38%
    11:00 +25°C° 0 mm 1 m/S 754 mmHg 38%
    12:00 +26°C° 0 mm 2 m/S 754 mmHg 38%
    13:00 +26°C° 0 mm 2 m/S 753 mmHg 38%
    14:00 +25°C° 0 mm 2 m/S 753 mmHg 43%
    15:00 +24°C° 0 mm 2 m/S 753 mmHg 48%
    16:00 +23°C° 0 mm 1 m/S 752 mmHg 53%
    17:00 +21°C° 0 mm 2 m/S 752 mmHg 60%
    18:00 +19°C° 0 mm 2 m/S 752 mmHg 66%
    19:00 +18°C° 0 mm 2 m/S 752 mmHg 72%
    20:00 +18°C° 0 mm 2 m/S 752 mmHg 72%
    21:00 +18°C° 0 mm 3 m/S 752 mmHg 73%
    22:00 +17°C° 0 mm 3 m/S 752 mmHg 73%
    23:00 +17°C° 0,1 mm 4 m/S 751 mmHg 72%

    23 Oktober, Montag

    Zeit Temperatur Niederschläge Wind Luftdruck Luftfeuchtigkeit
    00:00 +17°C° 0,1 mm 4 m/S 751 mmHg 71%
    01:00 +17°C° 0,1 mm 4 m/S 750 mmHg 70%
    02:00 +17°C° 0,8 mm 4 m/S 750 mmHg 70%
    03:00 +16°C° 0,8 mm 5 m/S 750 mmHg 70%
    04:00 +16°C° 0,8 mm 5 m/S 749 mmHg 70%
    05:00 +17°C° 1,2 mm 4 m/S 749 mmHg 70%
    06:00 +17°C° 1,2 mm 4 m/S 748 mmHg 71%
    07:00 +17°C° 1,2 mm 3 m/S 748 mmHg 71%
    08:00 +17°C° 2,5 mm 4 m/S 748 mmHg 75%
    09:00 +15°C° 2,5 mm 4 m/S 748 mmHg 79%
    10:00 +14°C° 2,5 mm 5 m/S 748 mmHg 83%
    11:00 +15°C° 1 mm 4 m/S 747 mmHg 81%
    12:00 +15°C° 1 mm 4 m/S 747 mmHg 78%
    13:00 +15°C° 1 mm 4 m/S 747 mmHg 75%
    14:00 +17°C° 0,2 mm 3 m/S 746 mmHg 75%
    15:00 +17°C° 0,2 mm 3 m/S 746 mmHg 74%
    16:00 +17°C° 0,2 mm 2 m/S 746 mmHg 74%
    17:00 +16°C° 0,1 mm 3 m/S 746 mmHg 76%
    18:00 +16°C° 0,1 mm 3 m/S 746 mmHg 78%
    19:00 +14°C° 0,1 mm 3 m/S 746 mmHg 81%
    20:00 +14°C° 0,1 mm 3 m/S 746 mmHg 81%
    21:00 +14°C° 0,1 mm 4 m/S 746 mmHg 81%
    22:00 +14°C° 0,1 mm 4 m/S 746 mmHg 81%
    23:00 +13°C° 0,2 mm 4 m/S 746 mmHg 81%
    Mehr zeigen